Location: East Guldeford
(50.9500°N, 0.7500°E)
Time: 09:48:07
(UTC+00:00)

Cosmos 2369 Rocket - Pass Details

Date: 12 May 2021
Orbit: 827 x 854 km, 71.0° (Epoch: 16 June)

Event Time Altitude Azimuth Distance (km) Brightness Sun altitude
Exits shadow 22:01:50 19° 116° (ESE) 1,874 3.5 -16.5°
Maximum altitude 22:02:55 20° 100° (E) 1,825 3.6 -16.6°
Drops below altitude 10° 22:06:56 10° 55° (NE) 2,463 4.7 -16.8°
Sets 22:09:57 0° 39° (NE) 3,409 5.7 -17.1°
